This demonstration page uses our WeatherBlox Daily Observations layout. Learn more.

Left ArrowRight Arrow

Hourly Observations for August 2, 2022

Temp ( °F °C ) Dew Point ( °F °C ) Humidity (%) Winds ( mph kmh ) Pressure ( in mb ) Visibility ( mi km ) Precip ( " mm )
12:52 am 00:52 Clear 77 25 69 20.6 77 77 S 10 17 29.96 1015 10 16 0.00 0.00
1:52 am 01:52 Clear 75 23.9 69 20.6 82 82 S 9 15 29.96 1015 10 16 0.00 0.00
2:52 am 02:52 Clear 75 23.9 69 20.6 82 82 S 9 15 29.96 1014 10 16 0.00 0.00
3:52 am 03:52 Clear 74 23.3 69 20.6 85 85 S 8 13 29.96 1015 10 16 0.00 0.00
4:52 am 04:52 Clear 74 23.3 68 20 82 82 S 7 11 29.95 1014 10 16 0.00 0.00
5:52 am 05:52 Clear 74 23.3 68 20 82 82 SSE 9 15 29.95 1014 10 16 0.00 0.00
6:52 am 06:52 Sunny 74 23.3 69 20.6 85 85 S 7 11 29.96 1015 10 16 0.00 0.00
7:52 am 07:52 Sunny 77 25 69 20.6 77 77 S 10 17 29.97 1015 10 16 0.00 0.00
8:52 am 08:52 Sunny 82 27.8 70 21.1 67 67 S 8 13 29.95 1014 10 16 0.00 0.00
9:52 am 09:52 Sunny 87 30.6 70 21.1 57 57 S 10 17 29.95 1014 10 16 0.00 0.00
10:52 am 10:52 Sunny 89 31.7 70 21.1 53 53 SSW 8 13 29.95 1014 10 16 0.00 0.00
11:52 am 11:52 Sunny 93 33.9 69 20.6 46 46 W 6 9 29.94 1014 10 16 0.00 0.00
12:52 pm 12:52 Mostly Sunny 95 35 68 20 41 41 WSW 8 13 29.93 1014 10 16 0.00 0.00
1:52 pm 13:52 Mostly Cloudy 96 35.6 68 20 40 40 SSW 9 15 29.91 1013 10 16 0.00 0.00
2:52 pm 14:52 Mostly Cloudy 94 34.4 68 20 43 43 SSE 12 19 29.90 1012 10 16 0.00 0.00
3:52 pm 15:52 Mostly Sunny 98 36.7 65 18.3 34 34 S 15 24 29.87 1011 10 16 0.00 0.00
4:52 pm 16:52 Mostly Sunny 95 35 67 19.4 40 40 S 12 19 29.87 1011 10 16 0.00 0.00
5:52 pm 17:52 Partly Cloudy 94 34.4 68 20 43 43 S 14 22 29.86 1011 10 16 0.00 0.00
6:52 pm 18:52 Sunny 93 33.9 68 20 44 44 S 12 19 29.86 1011 10 16 0.00 0.00
7:52 pm 19:52 Sunny 90 32.2 69 20.6 50 50 S 10 17 29.86 1011 10 16 0.00 0.00
8:52 pm 20:52 Clear 87 30.6 70 21.1 57 57 SSE 9 15 29.86 1011 10 16 0.00 0.00
9:52 pm 21:52 Clear 86 30 70 21.1 59 59 S 10 17 29.87 1011 10 16 0.00 0.00
10:52 pm 22:52 Clear 84 28.9 71 21.7 65 65 S 13 20 29.87 1012 10 16 0.00 0.00
11:52 pm 23:52 Clear 82 27.8 71 21.7 69 69 S 12 19 29.87 1011 10 16 0.00 0.00

Powered by AerisWeather